FW4288 Weather Reports


time (UTC)temp
C
wind
direction
speed
KPH
gust
KPH
rain 1hr
cm
rain 24hr
cm
rain mn
cm
humidity
%
barometer
mb
20260507023515 5 134 1.6 4.8 0.05 2.59 2.59 99 1008.1
20260507023015 5 144 1.6 3.2 0.05 2.59 2.59 99 1008.0
20260507022515 5 144 1.6 4.8 0.08 2.59 2.59 99 1007.9
20260507022015 5 87 1.6 8.0 0.08 2.59 2.59 99 1007.9
20260507021516 5 346 1.6 8.0 0.05 2.57 2.57 99 1007.9
20260507021015 5 138 1.6 9.7 0.08 2.57 2.57 99 1007.8
20260507020515 5 147 1.6 9.7 0.08 2.57 2.57 99 1007.8
20260507015015 5 22 3.2 6.4 0.05 2.57 2.54 99 1007.7
20260507014516 5 119 1.6 4.8 0.08 2.57 2.54 99 1007.9
20260507014016 5 157 1.6 4.8 0.08 2.57 2.54 99 1007.8
20260507013516 5 157 1.6 4.8 0.08 2.57 2.54 99 1007.8
20260507012517 5 166 1.6 4.8 0.05 2.54 2.51 99 1008.0
20260507012015 5 166 1.6 4.8 0.05 2.54 2.51 98 1007.8
20260507011516 5 144 1.6 6.4 0.05 2.54 2.51 98 1007.6
20260507011015 5 57 1.6 11.3 0.03 2.51 2.49 98 1007.7
20260507010516 6 257 1.6 11.3 0.03 2.51 2.49 99 1007.6
20260507010016 6 144 1.6 8.0 0.03 2.51 2.49 98 1007.2
20260507005516 6 82 1.6 6.4 0.03 2.51 2.49 99 1007.2
20260507004516 7 81 1.6 6.4 0.03 2.49 2.46 99 1007.0
20260507004014 7 78 0.0 4.8 0.05 2.49 2.46 99 1007.1
20260507003015 7 171 1.6 8.0 0.05 2.49 2.46 99 1007.0
20260507002514 7 171 1.6 8.0 0.05 2.49 2.46 99 1006.7
20260507002014 7 272 1.6 8.0 0.08 2.49 2.46 99 1006.8
20260507001514 7 120 1.6 8.0 0.08 2.49 2.46 99 1006.3
20260507000514 7 51 3.2 8.0 0.08 2.49 2.46 99 1006.4
20260507000014 8 156 3.2 9.7 0.08 2.49 2.46 99 1006.4
20260506235514 8 124 1.6 9.7 0.08 2.49 2.46 99 1006.1
20260506235014 8 113 3.2 12.9 0.05 2.46 2.44 99 1005.9
20260506234514 8 202 3.2 12.9 0.05 2.46 2.44 99 1005.9
20260506234014 8 128 3.2 14.5 0.03 2.44 2.41 99 1005.8
20260506233514 8 142 3.2 14.5 0.03 2.44 2.41 99 1005.6
20260506233015 8 22 3.2 8.0 0.08 2.44 2.41 99 1005.4
20260506232514 9 297 3.2 8.0 0.18 2.44 2.41 99 1005.4
20260506232014 9 319 3.2 8.0 0.25 2.41 2.39 99 1005.3
20260506231014 9 360 3.2 17.7 0.25 2.41 2.39 99 1005.2
20260506230514 10 217 3.2 17.7 0.25 2.41 2.39 99 1005.2
20260506225514 10 347 3.2 8.0 0.25 2.49 2.39 99 1004.9
20260506224515 11 169 1.6 4.8 0.28 2.49 2.39 99 1004.6
20260506224014 11 333 1.6 3.2 0.28 2.49 2.39 99 1004.7
20260506223515 12 333 1.6 3.2 0.28 2.49 2.39 100 1004.5
20260506223014 12 263 1.6 4.8 0.23 2.44 2.34 100 1004.3
20260506222514 12 263 1.6 4.8 0.13 2.34 2.24 100 1004.5
20260506222014 12 5 1.6 4.8 0.03 2.24 2.13 100 1004.2
20260506221515 12 36 1.6 6.4 0.05 2.24 2.13 100 1004.2
20260506221014 12 96 3.2 6.4 0.05 2.24 2.13 100 1004.2
20260506220015 12 65 1.6 4.8 0.05 2.24 2.13 100 1004.3
20260506215514 12 302 1.6 4.8 0.05 2.24 2.13 100 1004.2
20260506215014 12 31 1.6 6.4 0.05 2.21 2.11 100 1004.2
20260506213514 12 360 1.6 6.4 0.05 2.21 2.11 100 1004.2
20260506213014 12 107 1.6 6.4 0.08 2.21 2.11 100 1004.2
20260506212514 12 13 1.6 6.4 0.10 2.21 2.11 100 1004.2
20260506212014 12 345 1.6 6.4 0.13 2.21 2.11 100 1004.1
20260506211014 12 24 3.2 6.4 0.13 2.18 2.08 100 1004.3
20260506210514 12 26 3.2 6.4 0.15 2.18 2.08 100 1004.3
20260506210014 12 48 3.2 12.9 0.18 2.18 2.08 100 1004.2
20260506205514 12 148 3.2 12.9 0.20 2.18 2.08 100 1004.3
20260506205014 12 98 1.6 8.0 0.23 2.16 2.06 100 1004.4
20260506204014 12 335 3.2 6.4 0.30 2.16 2.06 100 1004.5
20260506202514 12 40 3.2 11.3 0.28 2.11 2.01 100 1004.6
20260506202014 12 46 1.6 11.3 0.28 2.08 1.98 100 1004.7
20260506201014 12 101 1.6 6.4 0.28 2.06 1.96 100 1004.8
20260506200015 12 102 3.2 8.0 0.25 2.01 1.91 100 1004.9
20260506195014 12 26 1.6 6.4 0.23 1.93 1.83 100 1005.0
20260506194514 12 34 3.2 6.4 0.20 1.88 1.78 100 1005.1
20260506194014 12 355 3.2 8.0 0.20 1.85 1.75 100 1005.1
20260506193015 12 270 3.2 8.0 0.23 1.83 1.73 100 1004.9
20260506192514 12 215 3.2 6.4 0.28 1.83 1.73 100 1005.1
20260506192014 12 355 3.2 6.4 0.28 1.80 1.70 100 1005.1
20260506191514 12 28 3.2 8.0 0.28 1.78 1.68 100 1005.0
20260506191015 12 360 3.2 8.0 0.28 1.78 1.68 100 1005.0
20260506190514 12 349 3.2 8.0 0.33 1.78 1.68 99 1005.1
20260506190015 12 305 3.2 8.0 0.33 1.75 1.65 99 1005.2
20260506185514 12 338 3.2 8.0 0.36 1.73 1.63 99 1005.1
20260506185015 12 77 3.2 9.7 0.36 1.70 1.60 99 1005.1
20260506184515 12 24 3.2 9.7 0.43 1.68 1.57 99 1005.1
20260506184014 12 222 3.2 6.4 0.46 1.65 1.55 99 1005.2
20260506183515 12 130 3.2 6.4 0.51 1.63 1.52 99 1005.1
20260506183014 12 78 3.2 12.9 0.53 1.57 1.47 99 1005.2
20260506181515 12 72 3.2 12.9 0.66 1.50 1.40 99 1005.3
20260506181015 12 27 3.2 8.0 0.69 1.47 1.37 99 1005.3
20260506180514 12 355 3.2 8.0 0.71 1.45 1.35 99 1005.5
20260506180015 12 31 3.2 14.5 0.74 1.42 1.32 99 1005.4
20260506175515 12 61 3.2 14.5 0.74 1.37 1.27 99 1005.4
20260506175015 12 12 3.2 12.9 0.71 1.32 1.22 99 1005.7
20260506174515 12 326 3.2 12.9 0.69 1.24 1.14 99 1005.7
20260506174014 12 189 3.2 11.3 0.66 1.17 1.07 99 1005.6
20260506173515 12 30 1.6 9.7 0.61 1.09 0.99 99 1005.6
20260506173015 12 39 1.6 8.0 0.58 1.04 0.94 99 1005.8
20260506172015 12 326 3.2 9.7 0.51 0.89 0.79 99 1005.9
20260506171514 12 84 3.2 9.7 0.48 0.84 0.74 99 1006.3
20260506170514 12 44 3.2 8.0 0.41 0.74 0.64 99 1006.3
20260506170015 12 254 1.6 9.7 0.33 0.66 0.56 99 1006.4
20260506165515 12 44 1.6 4.8 0.33 0.64 0.53 99 1006.4
20260506165014 12 329 1.6 8.0 0.28 0.58 0.48 99 1006.6
20260506164515 12 36 1.6 8.0 0.25 0.53 0.43 99 1006.7
20260506164015 12 31 1.6 6.4 0.23 0.51 0.41 99 1006.8
20260506163514 12 15 1.6 8.0 0.20 0.46 0.36 99 1006.6
20260506163014 12 196 3.2 8.0 0.18 0.43 0.33 98 1006.6
20260506162514 12 55 1.6 6.4 0.18 0.41 0.30 98 1006.7
20260506162014 12 5 1.6 6.4 0.15 0.38 0.28 98 1006.7
20260506161515 12 234 1.6 6.4 0.15 0.36 0.25 98 1006.7
20260506160514 12 56 1.6 6.4 0.15 0.33 0.23 98 1006.7
20260506160015 12 36 1.6 6.4 0.18 0.33 0.23 98 1006.7
20260506155514 12 113 1.6 3.2 0.15 0.30 0.20 98 1006.7
20260506155014 12 162 1.6 8.0 0.18 0.30 0.20 98 1006.7
20260506154515 12 52 1.6 8.0 0.15 0.28 0.18 97 1006.8
20260506153514 12 82 1.6 6.4 0.13 0.25 0.15 97 1006.9
20260506153014 12 317 1.6 6.4 0.13 0.25 0.15 97 1006.9
20260506152515 12 60 1.6 4.8 0.10 0.23 0.13 97 1007.0
20260506151515 12 52 1.6 4.8 0.08 0.20 0.10 96 1007.1
20260506151014 12 55 1.6 4.8 0.08 0.20 0.10 96 1007.2
20260506150514 12 360 3.2 6.4 0.05 0.18 0.08 96 1007.3
20260506150015 12 188 3.2 6.4 0.03 0.15 0.05 96 1007.4
20260506145515 12 333 1.6 4.8 0.03 0.15 0.05 95 1007.5
20260506145014 13 345 1.6 3.2 0.00 0.13 0.03 94 1007.4
20260506144516 13 345 1.6 4.8 0.00 0.13 0.03 94 1007.4
20260506143515 13 298 3.2 8.0 0.00 0.13 0.03 93 1007.6
20260506143015 13 58 1.6 8.0 0.00 0.13 0.03 92 1007.7
20260506142514 13 59 3.2 8.0 0.00 0.13 0.03 92 1007.6
20260506142014 13 329 3.2 8.0 0.00 0.13 0.03 92 1007.6
20260506141014 13 311 3.2 9.7 0.00 0.13 0.03 92 1007.4
20260506140515 13 328 3.2 9.7 0.00 0.13 0.03 92 1007.3
20260506140014 13 86 3.2 9.7 0.00 0.13 0.03 92 1007.1
20260506135515 13 69 3.2 8.0 0.00 0.13 0.03 92 1007.2
20260506135014 13 86 3.2 9.7 0.00 0.13 0.03 92 1007.2
20260506134515 13 81 1.6 9.7 0.00 0.13 0.03 92 1007.2
20260506134014 13 355 1.6 4.8 0.00 0.13 0.03 92 1007.1
20260506133514 13 347 1.6 6.4 0.00 0.13 0.03 92 1007.0
20260506132514 13 96 1.6 4.8 0.00 0.13 0.03 92 1007.0
20260506132014 13 73 1.6 8.0 0.00 0.13 0.03 92 1007.1
20260506131516 12 35 1.6 8.0 0.00 0.13 0.03 93 1007.0
20260506131014 12 303 1.6 6.4 0.00 0.13 0.03 93 1007.2
20260506130514 12 275 1.6 8.0 0.00 0.13 0.03 93 1007.2
20260506130014 12 349 1.6 8.0 0.00 0.13 0.03 92 1007.3
20260506125014 12 37 1.6 6.4 0.00 0.13 0.03 92 1007.6
20260506124514 12 124 1.6 4.8 0.00 0.13 0.03 93 1007.8
20260506124015 12 217 1.6 6.4 0.00 0.13 0.03 93 1007.7
20260506123515 12 360 1.6 6.4 0.03 0.13 0.03 92 1007.8
20260506123015 12 49 1.6 4.8 0.03 0.13 0.03 92 1007.7
20260506122515 12 196 3.2 6.4 0.03 0.13 0.03 92 1007.8
20260506122015 12 102 3.2 6.4 0.03 0.13 0.03 92 1007.8
20260506121515 12 360 3.2 8.0 0.03 0.13 0.03 92 1007.9
20260506121015 12 162 1.6 4.8 0.03 0.13 0.03 92 1007.8
20260506120515 12 46 1.6 6.4 0.03 0.13 0.03 92 1007.7
20260506115515 12 140 1.6 4.8 0.03 0.15 0.03 92 1007.6
20260506115015 12 81 1.6 4.8 0.03 0.15 0.03 93 1007.6
20260506114015 11 130 1.6 4.8 0.00 0.13 0.00 93 1007.3
20260506113015 11 117 1.6 8.0 0.00 0.13 0.00 93 1007.5
20260506112515 11 91 1.6 6.4 0.00 0.13 0.00 94 1007.6
20260506112015 11 61 0.0 3.2 0.00 0.13 0.00 94 1007.6
20260506111515 11 61 0.0 3.2 0.00 0.13 0.00 94 1007.7
20260506111015 11 61 0.0 0.0 0.00 0.13 0.00 95 1007.7
20260506110515 11 61 0.0 0.0 0.00 0.13 0.00 94 1007.8
20260506110016 11 61 0.0 0.0 0.00 0.13 0.00 95 1007.7
20260506105515 11 61 0.0 0.0 0.00 0.13 0.00 95 1007.7
20260506105015 11 61 0.0 0.0 0.00 0.13 0.00 95 1007.6
20260506104515 10 61 0.0 0.0 0.00 0.13 0.00 95 1007.6
20260506104015 10 61 0.0 0.0 0.00 0.13 0.00 95 1007.4
20260506103515 10 61 0.0 0.0 0.00 0.13 0.00 96 1007.4
20260506103015 10 61 0.0 0.0 0.00 0.13 0.00 96 1007.4
20260506102515 10 61 0.0 0.0 0.00 0.13 0.00 96 1007.4
20260506102015 10 61 0.0 0.0 0.00 0.13 0.00 96 1007.4
20260506101515 10 61 0.0 0.0 0.00 0.13 0.00 96 1007.4
20260506101015 10 61 0.0 0.0 0.00 0.13 0.00 96 1007.4
20260506100515 10 61 0.0 0.0 0.00 0.13 0.00 96 1007.4
20260506100015 10 61 0.0 0.0 0.00 0.13 0.00 96 1007.3
20260506095015 10 61 0.0 0.0 0.00 0.13 0.00 96 1007.4
20260506094515 10 61 0.0 0.0 0.00 0.13 0.00 96 1007.4
20260506094015 10 61 0.0 0.0 0.00 0.13 0.00 96 1007.3
20260506093515 10 61 0.0 0.0 0.00 0.13 0.00 96 1007.3
20260506092515 10 61 0.0 0.0 0.00 0.13 0.00 97 1007.4
20260506092015 10 61 0.0 0.0 0.00 0.13 0.00 97 1007.3
20260506091515 10 48 0.0 0.0 0.00 0.13 0.00 97 1007.4
20260506091015 10 48 0.0 0.0 0.00 0.13 0.00 97 1007.5
20260506090515 10 48 0.0 0.0 0.00 0.13 0.00 97 1007.5
20260506085517 10 48 0.0 4.8 0.00 0.13 0.00 97 1007.6
20260506085015 10 46 0.0 3.2 0.00 0.13 0.00 97 1007.6
20260506084515 10 29 0.0 3.2 0.00 0.13 0.00 98 1007.5
20260506084015 10 133 0.0 3.2 0.00 0.13 0.00 97 1007.4
20260506083515 10 133 0.0 3.2 0.00 0.13 0.00 97 1007.5
20260506083015 10 133 0.0 0.0 0.00 0.13 0.00 97 1007.5
20260506082515 10 133 0.0 3.2 0.00 0.13 0.00 97 1007.5
20260506081515 10 133 0.0 1.6 0.00 0.13 0.00 97 1007.8
20260506081015 10 133 0.0 1.6 0.00 0.13 0.00 97 1007.9
20260506080515 10 133 0.0 1.6 0.00 0.13 0.00 97 1007.9
20260506073515 10 133 0.0 0.0 0.00 0.13 0.00 96 1008.1
20260506073016 10 133 0.0 0.0 0.00 0.13 0.00 96 1008.2
20260506072515 10 133 0.0 1.6 0.00 0.13 0.00 96 1008.3
20260506072015 10 133 0.0 1.6 0.00 0.13 0.00 96 1008.3
20260506071516 10 133 0.0 1.6 0.00 0.13 0.00 96 1008.3
20260506071015 10 133 0.0 1.6 0.00 0.13 0.00 96 1008.3
20260506070515 10 133 0.0 0.0 0.00 0.13 0.00 96 1008.2
20260506062515 11 133 0.0 1.6 0.00 0.13 0.00 94 1008.3
20260506061515 11 133 0.0 0.0 0.00 0.13 0.00 93 1008.1
20260506061015 11 133 0.0 1.6 0.00 0.13 0.00 93 1008.3
20260506051015 12 124 1.6 4.8 0.00 0.13 0.00 90 1008.5
20260506050515 12 95 1.6 4.8 0.00 0.13 0.00 89 1008.5
20260506045015 12 95 1.6 4.8 0.00 0.13 0.00 89 1008.5
20260506044515 12 126 0.0 1.6 0.00 0.13 0.00 90 1008.6
20260506044015 12 126 1.6 1.6 0.00 0.13 0.00 90 1008.8
20260506043015 12 126 0.0 1.6 0.00 0.13 0.00 89 1008.6
20260506042515 12 126 0.0 1.6 0.00 0.13 0.00 89 1008.7
20260506041515 12 126 0.0 1.6 0.00 0.13 0.00 88 1008.5
20260506041015 12 126 0.0 1.6 0.00 0.13 0.00 89 1008.6
20260506040515 12 126 0.0 1.6 0.00 0.13 0.00 90 1008.6
20260506035515 12 126 0.0 1.6 0.00 0.13 0.13 90 1008.7
20260506034515 12 126 0.0 1.6 0.00 0.13 0.13 91 1008.7
20260506034015 12 126 0.0 3.2 0.00 0.13 0.13 90 1008.8
20260506033515 12 126 0.0 3.2 0.00 0.13 0.13 91 1008.6
20260506033016 12 126 0.0 1.6 0.00 0.13 0.13 92 1008.6
20260506032015 12 126 0.0 1.6 0.00 0.13 0.13 94 1008.6
20260506031516 12 126 0.0 1.6 0.00 0.13 0.13 94 1008.6
20260506031015 12 126 0.0 1.6 0.00 0.13 0.13 94 1008.5
20260506030515 12 126 0.0 1.6 0.00 0.13 0.13 94 1008.6
20260506030017 12 126 1.6 1.6 0.00 0.13 0.13 94 1008.9
20260506025515 12 126 0.0 1.6 0.00 0.13 0.13 94 1008.8
20260506025015 12 126 0.0 1.6 0.00 0.13 0.13 94 1008.7
20260506024515 12 126 0.0 1.6 0.00 0.13 0.13 94 1008.7
20260506024015 12 126 1.6 1.6 0.00 0.13 0.13 94 1009.0